Year,Month,Day,Hour,Minute,Value (Times are PST for temperature in C)
2019,03,21,00,00,7.50
2019,03,21,00,01,7.50
2019,03,21,00,02,7.40
2019,03,21,00,03,7.40
2019,03,21,00,04,7.40
2019,03,21,00,05,7.30
2019,03,21,00,06,7.30
2019,03,21,00,07,7.30
2019,03,21,00,08,7.30
2019,03,21,00,09,7.30
2019,03,21,00,10,7.20
2019,03,21,00,11,7.20
2019,03,21,00,12,7.20
2019,03,21,00,13,7.20
2019,03,21,00,14,7.30
2019,03,21,00,15,7.30
2019,03,21,00,16,7.30
2019,03,21,00,17,7.40
2019,03,21,00,18,7.40
2019,03,21,00,19,7.50
2019,03,21,00,20,7.50
2019,03,21,00,21,7.50
2019,03,21,00,22,7.60
2019,03,21,00,23,7.60
2019,03,21,00,24,7.60
2019,03,21,00,25,7.60
2019,03,21,00,26,7.50
2019,03,21,00,27,7.50
2019,03,21,00,28,7.40
2019,03,21,00,29,7.30
2019,03,21,00,30,7.20
2019,03,21,00,31,7.10
2019,03,21,00,32,7.10
2019,03,21,00,33,7.10
2019,03,21,00,34,7.10
2019,03,21,00,35,7.10
2019,03,21,00,36,7.10
2019,03,21,00,37,7.10
2019,03,21,00,38,7.10
2019,03,21,00,39,7.10
2019,03,21,00,40,7.20
2019,03,21,00,41,7.30
2019,03,21,00,42,7.30
2019,03,21,00,43,7.30
2019,03,21,00,44,7.30
2019,03,21,00,45,7.30
2019,03,21,00,46,7.30
2019,03,21,00,47,7.30
2019,03,21,00,48,7.30
2019,03,21,00,49,7.30
2019,03,21,00,50,7.30
2019,03,21,00,51,7.40
2019,03,21,00,52,7.40
2019,03,21,00,53,7.50
2019,03,21,00,54,7.50
2019,03,21,00,55,7.50
2019,03,21,00,56,7.40
2019,03,21,00,57,7.30
2019,03,21,00,58,7.20
2019,03,21,00,59,7.10
2019,03,21,01,00,7.00
2019,03,21,01,01,7.00
2019,03,21,01,02,6.90
2019,03,21,01,03,6.80
2019,03,21,01,04,6.60
2019,03,21,01,05,6.50
2019,03,21,01,06,6.40
2019,03,21,01,07,6.30
2019,03,21,01,08,6.20
2019,03,21,01,09,6.20
2019,03,21,01,10,6.20
2019,03,21,01,11,6.30
2019,03,21,01,12,6.40
2019,03,21,01,13,6.40
2019,03,21,01,14,6.50
2019,03,21,01,15,6.50
2019,03,21,01,16,6.60
2019,03,21,01,17,6.60
2019,03,21,01,18,6.70
2019,03,21,01,19,6.70
2019,03,21,01,20,6.70
2019,03,21,01,21,6.70
2019,03,21,01,22,6.70
2019,03,21,01,23,6.70
2019,03,21,01,24,6.60
2019,03,21,01,25,6.50
2019,03,21,01,26,6.40
2019,03,21,01,27,6.30
2019,03,21,01,28,6.20
2019,03,21,01,29,6.20
2019,03,21,01,30,6.10
2019,03,21,01,31,6.10
2019,03,21,01,32,6.00
2019,03,21,01,33,5.90
2019,03,21,01,34,5.90
2019,03,21,01,35,5.80
2019,03,21,01,36,5.80
2019,03,21,01,37,5.70
2019,03,21,01,38,5.70
2019,03,21,01,39,5.60
2019,03,21,01,40,5.60
2019,03,21,01,41,5.50
2019,03,21,01,42,5.50
2019,03,21,01,43,5.50
2019,03,21,01,44,5.40
2019,03,21,01,45,5.40
2019,03,21,01,46,5.30
2019,03,21,01,47,5.30
2019,03,21,01,48,5.30
2019,03,21,01,49,5.30
2019,03,21,01,50,5.30
2019,03,21,01,51,5.50
2019,03,21,01,52,5.50
2019,03,21,01,53,5.50
2019,03,21,01,54,5.50
2019,03,21,01,55,5.40
2019,03,21,01,56,5.30
2019,03,21,01,57,5.30
2019,03,21,01,58,5.20
2019,03,21,01,59,5.20
2019,03,21,02,00,5.20
2019,03,21,02,01,5.20
2019,03,21,02,02,5.10
2019,03,21,02,03,5.10
2019,03,21,02,04,5.00
2019,03,21,02,05,5.00
2019,03,21,02,06,4.90
2019,03,21,02,07,4.90
2019,03,21,02,08,4.80
2019,03,21,02,09,4.80
2019,03,21,02,10,4.80
2019,03,21,02,11,4.80
2019,03,21,02,12,4.80
2019,03,21,02,13,4.80
2019,03,21,02,14,4.80
2019,03,21,02,15,4.70
2019,03,21,02,16,4.70
2019,03,21,02,17,4.70
2019,03,21,02,18,4.80
2019,03,21,02,19,4.90
2019,03,21,02,20,4.90
2019,03,21,02,21,4.90
2019,03,21,02,22,4.90
2019,03,21,02,23,4.90
2019,03,21,02,24,4.90
2019,03,21,02,25,4.80
2019,03,21,02,26,4.80
2019,03,21,02,27,4.70
2019,03,21,02,28,4.70
2019,03,21,02,29,4.70
2019,03,21,02,30,4.60
2019,03,21,02,31,4.50
2019,03,21,02,32,4.50
2019,03,21,02,33,4.40
2019,03,21,02,34,4.40
2019,03,21,02,35,4.40
2019,03,21,02,36,4.40
2019,03,21,02,37,4.40
2019,03,21,02,38,4.40
2019,03,21,02,39,4.40
2019,03,21,02,40,4.50
2019,03,21,02,41,4.50
2019,03,21,02,42,4.60
2019,03,21,02,43,4.50
2019,03,21,02,44,4.60
2019,03,21,02,45,4.60
2019,03,21,02,46,4.70
2019,03,21,02,47,4.70
2019,03,21,02,48,4.70
2019,03,21,02,49,4.70
2019,03,21,02,50,4.60
2019,03,21,02,51,4.60
2019,03,21,02,52,4.50
2019,03,21,02,53,4.40
2019,03,21,02,54,4.40
2019,03,21,02,55,4.30
2019,03,21,02,56,4.30
2019,03,21,02,57,4.30
2019,03,21,02,58,4.20
2019,03,21,02,59,4.20
2019,03,21,03,00,4.10
2019,03,21,03,01,4.10
2019,03,21,03,02,4.00
2019,03,21,03,03,4.00
2019,03,21,03,04,4.00
2019,03,21,03,05,4.10
2019,03,21,03,06,4.20
2019,03,21,03,07,4.30
2019,03,21,03,08,4.50
2019,03,21,03,09,4.70
2019,03,21,03,10,4.80
2019,03,21,03,11,4.80
2019,03,21,03,12,4.80
2019,03,21,03,13,4.70
2019,03,21,03,14,4.70
2019,03,21,03,15,4.60
2019,03,21,03,16,4.50
2019,03,21,03,17,4.40
2019,03,21,03,18,4.30
2019,03,21,03,19,4.20
2019,03,21,03,20,4.10
2019,03,21,03,21,4.10
2019,03,21,03,22,4.20
2019,03,21,03,23,4.20
2019,03,21,03,24,4.10
2019,03,21,03,25,4.10
2019,03,21,03,26,4.00
2019,03,21,03,27,3.90
2019,03,21,03,28,3.80
2019,03,21,03,29,3.80
2019,03,21,03,30,3.80
2019,03,21,03,31,3.80
2019,03,21,03,32,3.80
2019,03,21,03,33,3.80
2019,03,21,03,34,3.70
2019,03,21,03,35,3.70
2019,03,21,03,36,3.70
2019,03,21,03,37,3.60
2019,03,21,03,38,3.60
2019,03,21,03,39,3.60
2019,03,21,03,40,3.60
2019,03,21,03,41,3.50
2019,03,21,03,42,3.50
2019,03,21,03,43,3.50
2019,03,21,03,44,3.50
2019,03,21,03,45,3.50
2019,03,21,03,46,3.50
2019,03,21,03,47,3.50
2019,03,21,03,48,3.50
2019,03,21,03,49,3.50
2019,03,21,03,50,3.50
2019,03,21,03,51,3.40
2019,03,21,03,52,3.40
2019,03,21,03,53,3.40
2019,03,21,03,54,3.50
2019,03,21,03,55,3.50
2019,03,21,03,56,3.50
2019,03,21,03,57,3.50
2019,03,21,03,58,3.60
2019,03,21,03,59,3.70
2019,03,21,04,00,3.80
2019,03,21,04,01,3.90
2019,03,21,04,02,4.00
2019,03,21,04,03,4.00
2019,03,21,04,04,4.00
2019,03,21,04,05,4.00
2019,03,21,04,06,4.00
2019,03,21,04,07,4.00
2019,03,21,04,08,3.90
2019,03,21,04,09,3.90
2019,03,21,04,10,3.80
2019,03,21,04,11,3.80
2019,03,21,04,12,3.80
2019,03,21,04,13,3.70
2019,03,21,04,14,3.70
2019,03,21,04,15,3.60
2019,03,21,04,16,3.50
2019,03,21,04,17,3.50
2019,03,21,04,18,3.40
2019,03,21,04,19,3.40
2019,03,21,04,20,3.30
2019,03,21,04,21,3.20
2019,03,21,04,22,3.20
2019,03,21,04,23,3.10
2019,03,21,04,24,3.10
2019,03,21,04,25,3.10
2019,03,21,04,26,3.10
2019,03,21,04,27,3.10
2019,03,21,04,28,3.10
2019,03,21,04,29,3.00
2019,03,21,04,30,3.00
2019,03,21,04,31,2.90
2019,03,21,04,32,2.90
2019,03,21,04,33,2.80
2019,03,21,04,34,2.80
2019,03,21,04,35,2.70
2019,03,21,04,36,2.70
2019,03,21,04,37,2.70
2019,03,21,04,38,2.70
2019,03,21,04,39,2.80
2019,03,21,04,40,2.80
2019,03,21,04,41,2.80
2019,03,21,04,42,2.80
2019,03,21,04,43,2.80
2019,03,21,04,44,2.80
2019,03,21,04,45,2.70
2019,03,21,04,46,2.70
2019,03,21,04,47,2.60
2019,03,21,04,48,2.60
2019,03,21,04,49,2.60
2019,03,21,04,50,2.60
2019,03,21,04,51,2.50
2019,03,21,04,52,2.50
2019,03,21,04,53,2.50
2019,03,21,04,54,2.50
2019,03,21,04,55,2.50
2019,03,21,04,56,2.50
2019,03,21,04,57,2.50
2019,03,21,04,58,2.60
2019,03,21,04,59,2.70
2019,03,21,05,00,2.90
2019,03,21,05,01,3.00
2019,03,21,05,02,3.10
2019,03,21,05,03,3.10
2019,03,21,05,04,3.10
2019,03,21,05,05,3.10
2019,03,21,05,06,3.00
2019,03,21,05,07,2.90
2019,03,21,05,08,2.90
2019,03,21,05,09,2.80
2019,03,21,05,10,2.70
2019,03,21,05,11,2.70
2019,03,21,05,12,2.60
2019,03,21,05,13,2.60
2019,03,21,05,14,2.50
2019,03,21,05,15,2.50
2019,03,21,05,16,2.50
2019,03,21,05,17,2.40
2019,03,21,05,18,2.40
2019,03,21,05,19,2.40
2019,03,21,05,20,2.30
2019,03,21,05,21,2.40
2019,03,21,05,22,2.40
2019,03,21,05,23,2.30
2019,03,21,05,24,2.30
2019,03,21,05,25,2.30
2019,03,21,05,26,2.30
2019,03,21,05,27,2.30
2019,03,21,05,28,2.30
2019,03,21,05,29,2.30
2019,03,21,05,30,2.30
2019,03,21,05,31,2.40
2019,03,21,05,32,2.50
2019,03,21,05,33,2.50
2019,03,21,05,34,2.50
2019,03,21,05,35,2.40
2019,03,21,05,36,2.40
2019,03,21,05,37,2.40
2019,03,21,05,38,2.40
2019,03,21,05,39,2.40
2019,03,21,05,40,2.30
2019,03,21,05,41,2.30
2019,03,21,05,42,2.20
2019,03,21,05,43,2.20
2019,03,21,05,44,2.20
2019,03,21,05,45,2.10
2019,03,21,05,46,2.10
2019,03,21,05,47,2.10
2019,03,21,05,48,2.10
2019,03,21,05,49,2.00
2019,03,21,05,50,2.00
2019,03,21,05,51,2.00
2019,03,21,05,52,2.10
2019,03,21,05,53,2.10
2019,03,21,05,54,2.10
2019,03,21,05,55,2.10
2019,03,21,05,56,2.00
2019,03,21,05,57,2.00
2019,03,21,05,58,1.90
2019,03,21,05,59,1.90
2019,03,21,06,00,1.90
2019,03,21,06,01,1.90
2019,03,21,06,02,1.90
2019,03,21,06,03,1.90
2019,03,21,06,04,1.80
2019,03,21,06,05,1.80
2019,03,21,06,06,1.80
2019,03,21,06,07,1.80
2019,03,21,06,08,1.80
2019,03,21,06,09,1.80
2019,03,21,06,10,1.80
2019,03,21,06,11,1.80
2019,03,21,06,12,1.80
2019,03,21,06,13,1.70
2019,03,21,06,14,1.70
2019,03,21,06,15,1.70
2019,03,21,06,16,1.70
2019,03,21,06,17,1.70
2019,03,21,06,18,1.70
2019,03,21,06,19,1.70
2019,03,21,06,20,1.70
2019,03,21,06,21,1.60
2019,03,21,06,22,1.70
2019,03,21,06,23,1.70
2019,03,21,06,24,1.70
2019,03,21,06,25,1.70
2019,03,21,06,26,1.70
2019,03,21,06,27,1.70
2019,03,21,06,28,1.60
2019,03,21,06,29,1.60
2019,03,21,06,30,1.60
2019,03,21,06,31,1.60
2019,03,21,06,32,1.60
2019,03,21,06,33,1.70
2019,03,21,06,34,1.80
2019,03,21,06,35,1.80
2019,03,21,06,36,1.80
2019,03,21,06,37,1.80
2019,03,21,06,38,1.70
2019,03,21,06,39,1.70
2019,03,21,06,40,1.70
2019,03,21,06,41,1.60
2019,03,21,06,42,1.60
2019,03,21,06,43,1.60
2019,03,21,06,44,1.60
2019,03,21,06,45,1.60
2019,03,21,06,46,1.50
2019,03,21,06,47,1.50
2019,03,21,06,48,1.50
2019,03,21,06,49,1.40
2019,03,21,06,50,1.40
2019,03,21,06,51,1.40
2019,03,21,06,52,1.40
2019,03,21,06,53,1.40
2019,03,21,06,54,1.40
2019,03,21,06,55,1.40
2019,03,21,06,56,1.40
2019,03,21,06,57,1.40
2019,03,21,06,58,1.40
2019,03,21,06,59,1.40
2019,03,21,07,00,1.40
2019,03,21,07,01,1.40
2019,03,21,07,02,1.40
2019,03,21,07,03,1.40
2019,03,21,07,04,1.40
2019,03,21,07,05,1.40
2019,03,21,07,06,1.40
2019,03,21,07,07,1.40
2019,03,21,07,08,1.40
2019,03,21,07,09,1.40
2019,03,21,07,10,1.40
2019,03,21,07,11,1.40
2019,03,21,07,12,1.40
2019,03,21,07,13,1.40
2019,03,21,07,14,1.40
2019,03,21,07,15,1.30
2019,03,21,07,16,1.30
2019,03,21,07,17,1.30
2019,03,21,07,18,1.30
2019,03,21,07,19,1.30
2019,03,21,07,20,1.30
2019,03,21,07,21,1.30
2019,03,21,07,22,1.30
2019,03,21,07,23,1.30
2019,03,21,07,24,1.30
2019,03,21,07,25,1.30
2019,03,21,07,26,1.30
2019,03,21,07,27,1.30
2019,03,21,07,28,1.40
2019,03,21,07,29,1.40
2019,03,21,07,30,1.40
2019,03,21,07,31,1.40
2019,03,21,07,32,1.40
2019,03,21,07,33,1.50
2019,03,21,07,34,1.60
2019,03,21,07,35,1.70
2019,03,21,07,36,1.70
2019,03,21,07,37,1.70
2019,03,21,07,38,1.70
2019,03,21,07,39,1.70
2019,03,21,07,40,1.70
2019,03,21,07,41,1.70
2019,03,21,07,42,1.60
2019,03,21,07,43,1.60
2019,03,21,07,44,1.60
2019,03,21,07,45,1.50
2019,03,21,07,46,1.50
2019,03,21,07,47,1.50
2019,03,21,07,48,1.50
2019,03,21,07,49,1.50
2019,03,21,07,50,1.70
2019,03,21,07,51,1.80
2019,03,21,07,52,1.90
2019,03,21,07,53,1.90
2019,03,21,07,54,1.90
2019,03,21,07,55,1.90
2019,03,21,07,56,1.90
2019,03,21,07,57,2.00
2019,03,21,07,58,2.00
2019,03,21,07,59,2.10
2019,03,21,08,00,2.20
2019,03,21,08,01,2.20
2019,03,21,08,02,2.20
2019,03,21,08,03,2.20
2019,03,21,08,04,2.20
2019,03,21,08,05,2.20
2019,03,21,08,06,2.20
2019,03,21,08,07,2.20
2019,03,21,08,08,2.20
2019,03,21,08,09,2.20
2019,03,21,08,10,2.20
2019,03,21,08,11,2.20
2019,03,21,08,12,2.20
2019,03,21,08,13,2.20
2019,03,21,08,14,2.20
2019,03,21,08,15,2.20
2019,03,21,08,16,2.30
2019,03,21,08,17,2.30
2019,03,21,08,18,2.30
2019,03,21,08,19,2.40
2019,03,21,08,20,2.40
2019,03,21,08,21,2.40
2019,03,21,08,22,2.50
2019,03,21,08,23,2.60
2019,03,21,08,24,2.60
2019,03,21,08,25,2.70
2019,03,21,08,26,2.70
2019,03,21,08,27,2.70
2019,03,21,08,28,2.70
2019,03,21,08,29,2.70
2019,03,21,08,30,2.80
2019,03,21,08,31,2.80
2019,03,21,08,32,2.90
2019,03,21,08,33,2.90
2019,03,21,08,34,3.00
2019,03,21,08,35,3.00
2019,03,21,08,36,3.00
2019,03,21,08,37,3.10
2019,03,21,08,38,3.20
2019,03,21,08,39,3.20
2019,03,21,08,40,3.30
2019,03,21,08,41,3.30
2019,03,21,08,42,3.40
2019,03,21,08,43,3.40
2019,03,21,08,44,3.50
2019,03,21,08,45,3.50
2019,03,21,08,46,3.50
2019,03,21,08,47,3.60
2019,03,21,08,48,3.60
2019,03,21,08,49,3.70
2019,03,21,08,50,3.70
2019,03,21,08,51,3.80
2019,03,21,08,52,3.80
2019,03,21,08,53,3.90
2019,03,21,08,54,4.00
2019,03,21,08,55,4.10
2019,03,21,08,56,4.10
2019,03,21,08,57,4.20
2019,03,21,08,58,4.30
2019,03,21,08,59,4.30
2019,03,21,09,00,4.40
2019,03,21,09,01,4.50
2019,03,21,09,02,4.60
2019,03,21,09,03,4.70
2019,03,21,09,04,4.80
2019,03,21,09,05,4.90
2019,03,21,09,06,5.00
2019,03,21,09,07,5.10
2019,03,21,09,08,5.20
2019,03,21,09,09,5.40
2019,03,21,09,10,5.50
2019,03,21,09,11,5.60
2019,03,21,09,12,5.70
2019,03,21,09,13,5.80
2019,03,21,09,14,5.90
2019,03,21,09,15,6.00
2019,03,21,09,16,6.10
2019,03,21,09,17,6.20
2019,03,21,09,18,6.40
2019,03,21,09,19,6.50
2019,03,21,09,20,6.60
2019,03,21,09,21,6.70
2019,03,21,09,22,6.80
2019,03,21,09,23,6.90
2019,03,21,09,24,7.10
2019,03,21,09,25,7.20
2019,03,21,09,26,7.30
2019,03,21,09,27,7.40
2019,03,21,09,28,7.50
2019,03,21,09,29,7.60
2019,03,21,09,30,7.70
2019,03,21,09,31,7.80
2019,03,21,09,32,7.90
2019,03,21,09,33,8.00
2019,03,21,09,34,8.10
2019,03,21,09,35,8.20
2019,03,21,09,36,8.30
2019,03,21,09,37,8.30
2019,03,21,09,38,8.40
2019,03,21,09,39,8.50
2019,03,21,09,40,8.50
2019,03,21,09,41,8.60
2019,03,21,09,42,8.70
2019,03,21,09,43,8.70
2019,03,21,09,44,8.80
2019,03,21,09,45,8.80
2019,03,21,09,46,8.90
2019,03,21,09,47,8.90
2019,03,21,09,48,9.00
2019,03,21,09,49,9.00
2019,03,21,09,50,9.10
2019,03,21,09,51,9.10
2019,03,21,09,52,9.20
2019,03,21,09,53,9.20
2019,03,21,09,54,9.30
2019,03,21,09,55,9.30
2019,03,21,09,56,9.30
2019,03,21,09,57,9.40
2019,03,21,09,58,9.40
2019,03,21,09,59,9.50
2019,03,21,10,00,9.60
2019,03,21,10,01,9.70
2019,03,21,10,02,9.70
2019,03,21,10,03,9.70
2019,03,21,10,04,9.70
2019,03,21,10,05,9.70
2019,03,21,10,06,9.70
2019,03,21,10,07,9.80
2019,03,21,10,08,9.80
2019,03,21,10,09,9.80
2019,03,21,10,10,9.80
2019,03,21,10,11,9.90
2019,03,21,10,12,9.90
2019,03,21,10,13,9.90
2019,03,21,10,14,10.00
2019,03,21,10,15,10.00
2019,03,21,10,16,10.00
2019,03,21,10,17,9.90
2019,03,21,10,18,9.90
2019,03,21,10,19,9.90
2019,03,21,10,20,9.90
2019,03,21,10,21,9.90
2019,03,21,10,22,9.90
2019,03,21,10,23,10.00
2019,03,21,10,24,10.10
2019,03,21,10,25,10.20
2019,03,21,10,26,10.20
2019,03,21,10,27,10.20
2019,03,21,10,28,10.30
2019,03,21,10,29,10.30
2019,03,21,10,30,10.30
2019,03,21,10,31,10.30
2019,03,21,10,32,10.20
2019,03,21,10,33,10.10
2019,03,21,10,34,10.10
2019,03,21,10,35,10.10
2019,03,21,10,36,10.10
2019,03,21,10,37,10.10
2019,03,21,10,38,10.10
2019,03,21,10,39,10.10
2019,03,21,10,40,10.00
2019,03,21,10,41,10.00
2019,03,21,10,42,9.90
2019,03,21,10,43,9.80
2019,03,21,10,44,9.80
2019,03,21,10,45,9.80
2019,03,21,10,46,9.70
2019,03,21,10,47,9.70
2019,03,21,10,48,9.80
2019,03,21,10,49,9.90
2019,03,21,10,50,9.90
2019,03,21,10,51,9.90
2019,03,21,10,52,10.00
2019,03,21,10,53,10.00
2019,03,21,10,54,10.10
2019,03,21,10,55,10.10
2019,03,21,10,56,10.20
2019,03,21,10,57,10.30
2019,03,21,10,58,10.30
2019,03,21,10,59,10.40
2019,03,21,11,00,10.40
2019,03,21,11,01,10.50
2019,03,21,11,02,10.60
2019,03,21,11,03,10.60
2019,03,21,11,04,10.60
2019,03,21,11,05,10.70
2019,03,21,11,06,10.70
2019,03,21,11,07,10.60
2019,03,21,11,08,10.60
2019,03,21,11,09,10.70
2019,03,21,11,10,10.70
2019,03,21,11,11,10.70
2019,03,21,11,12,10.70
2019,03,21,11,13,10.80
2019,03,21,11,14,10.80
2019,03,21,11,15,10.80
2019,03,21,11,16,10.80
2019,03,21,11,17,10.80
2019,03,21,11,18,10.80
2019,03,21,11,19,10.80
2019,03,21,11,20,10.80
2019,03,21,11,21,10.80
2019,03,21,11,22,10.70
2019,03,21,11,23,10.70
2019,03,21,11,24,10.70
2019,03,21,11,25,10.70
2019,03,21,11,26,10.70
2019,03,21,11,27,10.80
2019,03,21,11,28,10.80
2019,03,21,11,29,10.90
2019,03,21,11,30,11.00
2019,03,21,11,31,11.00
2019,03,21,11,32,11.00
2019,03,21,11,33,11.10
2019,03,21,11,34,11.10
2019,03,21,11,35,11.20
2019,03,21,11,36,11.20
2019,03,21,11,37,11.20
2019,03,21,11,38,11.20
2019,03,21,11,39,11.20
2019,03,21,11,40,11.20
2019,03,21,11,41,11.20
2019,03,21,11,42,11.20
2019,03,21,11,43,11.30
2019,03,21,11,44,11.30
2019,03,21,11,45,11.40
2019,03,21,11,46,11.50
2019,03,21,11,47,11.60
2019,03,21,11,48,11.60
2019,03,21,11,49,11.70
2019,03,21,11,50,11.70
2019,03,21,11,51,11.70
2019,03,21,11,52,11.70
2019,03,21,11,53,11.70
2019,03,21,11,54,11.70
2019,03,21,11,55,11.70
2019,03,21,11,56,11.80
2019,03,21,11,57,11.80
2019,03,21,11,58,11.80
2019,03,21,11,59,11.90
2019,03,21,12,00,12.00
2019,03,21,12,01,12.00
2019,03,21,12,02,12.10
2019,03,21,12,03,12.10
2019,03,21,12,04,12.10
2019,03,21,12,05,12.00
2019,03,21,12,06,11.90
2019,03,21,12,07,11.90
2019,03,21,12,08,11.90
2019,03,21,12,09,11.90
2019,03,21,12,10,11.80
2019,03,21,12,11,11.80
2019,03,21,12,12,11.80
2019,03,21,12,13,11.80
2019,03,21,12,14,11.80
2019,03,21,12,15,11.90
2019,03,21,12,16,11.90
2019,03,21,12,17,11.90
2019,03,21,12,18,11.90
2019,03,21,12,19,12.00
2019,03,21,12,20,12.00
2019,03,21,12,21,11.90
2019,03,21,12,22,11.90
2019,03,21,12,23,11.90
2019,03,21,12,24,12.00
2019,03,21,12,25,12.00
2019,03,21,12,26,12.00
2019,03,21,12,27,12.10
2019,03,21,12,28,12.10
2019,03,21,12,29,12.10
2019,03,21,12,30,12.10
2019,03,21,12,31,12.10
2019,03,21,12,32,12.10
2019,03,21,12,33,12.10
2019,03,21,12,34,12.00
2019,03,21,12,35,12.00
2019,03,21,12,36,12.10
2019,03,21,12,37,12.10
2019,03,21,12,38,12.10
2019,03,21,12,39,12.10
2019,03,21,12,40,12.20
2019,03,21,12,41,12.20
2019,03,21,12,42,12.20
2019,03,21,12,43,12.30
2019,03,21,12,44,12.30
2019,03,21,12,45,12.30
2019,03,21,12,46,12.30
2019,03,21,12,47,12.30
2019,03,21,12,48,12.40
2019,03,21,12,49,12.40
2019,03,21,12,50,12.40
2019,03,21,12,51,12.50
2019,03,21,12,52,12.40
2019,03,21,12,53,12.40
2019,03,21,12,54,12.40
2019,03,21,12,55,12.40
2019,03,21,12,56,12.40
2019,03,21,12,57,12.30
2019,03,21,12,58,12.30
2019,03,21,12,59,12.30
2019,03,21,13,00,12.30
2019,03,21,13,01,12.30
2019,03,21,13,02,12.30
2019,03,21,13,03,12.30
2019,03,21,13,04,12.30
2019,03,21,13,05,12.40
2019,03,21,13,06,12.40
2019,03,21,13,07,12.40
2019,03,21,13,08,12.40
2019,03,21,13,09,12.40
2019,03,21,13,10,12.20
2019,03,21,13,11,12.10
2019,03,21,13,12,12.00
2019,03,21,13,13,12.00
2019,03,21,13,14,12.00
2019,03,21,13,15,11.90
2019,03,21,13,16,11.80
2019,03,21,13,17,11.80
2019,03,21,13,18,11.90
2019,03,21,13,19,11.90
2019,03,21,13,20,11.90
2019,03,21,13,21,12.00
2019,03,21,13,22,12.10
2019,03,21,13,23,12.20
2019,03,21,13,24,12.30
2019,03,21,13,25,12.30
2019,03,21,13,26,12.40
2019,03,21,13,27,12.50
2019,03,21,13,28,12.60
2019,03,21,13,29,12.60
2019,03,21,13,30,12.70
2019,03,21,13,31,12.70
2019,03,21,13,32,12.80
2019,03,21,13,33,12.80
2019,03,21,13,34,12.90
2019,03,21,13,35,12.80
2019,03,21,13,36,12.90
2019,03,21,13,37,12.90
2019,03,21,13,38,12.80
2019,03,21,13,39,12.80
2019,03,21,13,40,12.90
2019,03,21,13,41,12.90
2019,03,21,13,42,12.90
2019,03,21,13,43,13.00
2019,03,21,13,44,13.00
2019,03,21,13,45,13.10
2019,03,21,13,46,13.20
2019,03,21,13,47,13.30
2019,03,21,13,48,13.40
2019,03,21,13,49,13.40
2019,03,21,13,50,13.40
2019,03,21,13,51,13.40
2019,03,21,13,52,13.50
2019,03,21,13,53,13.50
2019,03,21,13,54,13.60
2019,03,21,13,55,13.60
2019,03,21,13,56,13.70
2019,03,21,13,57,13.70
2019,03,21,13,58,13.70
2019,03,21,13,59,13.70
2019,03,21,14,00,13.70
2019,03,21,14,01,13.60
2019,03,21,14,02,13.50
2019,03,21,14,03,13.50
2019,03,21,14,04,13.40
2019,03,21,14,05,13.30
2019,03,21,14,06,13.30
2019,03,21,14,07,13.30
2019,03,21,14,08,13.20
2019,03,21,14,09,13.20
2019,03,21,14,10,13.20
2019,03,21,14,11,13.20
2019,03,21,14,12,13.30
2019,03,21,14,13,13.30
2019,03,21,14,14,13.30
2019,03,21,14,15,13.30
2019,03,21,14,16,13.30
2019,03,21,14,17,13.30
2019,03,21,14,18,13.30
2019,03,21,14,19,13.30
2019,03,21,14,20,13.30
2019,03,21,14,21,13.30
2019,03,21,14,22,13.20
2019,03,21,14,23,13.20
2019,03,21,14,24,13.20
2019,03,21,14,25,13.10
2019,03,21,14,26,13.10
2019,03,21,14,27,13.10
2019,03,21,14,28,13.10
2019,03,21,14,29,13.10
2019,03,21,14,30,13.10
2019,03,21,14,31,13.20
2019,03,21,14,32,13.20
2019,03,21,14,33,13.20
2019,03,21,14,34,13.10
2019,03,21,14,35,13.10
2019,03,21,14,36,13.00
2019,03,21,14,37,13.00
2019,03,21,14,38,13.00
2019,03,21,14,39,13.00
2019,03,21,14,40,13.00
2019,03,21,14,41,13.00
2019,03,21,14,42,13.10
2019,03,21,14,43,13.10
2019,03,21,14,44,13.20
2019,03,21,14,45,13.20
2019,03,21,14,46,13.20
2019,03,21,14,47,13.20
2019,03,21,14,48,13.20
2019,03,21,14,49,13.20
2019,03,21,14,50,13.20
2019,03,21,14,51,13.10
2019,03,21,14,52,13.10
2019,03,21,14,53,13.10
2019,03,21,14,54,13.20
2019,03,21,14,55,13.20
2019,03,21,14,56,13.10
2019,03,21,14,57,13.10
2019,03,21,14,58,13.10
2019,03,21,14,59,13.10
2019,03,21,15,00,13.00
2019,03,21,15,01,13.10
2019,03,21,15,02,13.00
2019,03,21,15,03,13.00
2019,03,21,15,04,12.90
2019,03,21,15,05,12.90
2019,03,21,15,06,12.80
2019,03,21,15,07,12.80
2019,03,21,15,08,12.80
2019,03,21,15,09,12.80
2019,03,21,15,10,12.90
2019,03,21,15,11,12.90
2019,03,21,15,12,13.00
2019,03,21,15,13,13.00
2019,03,21,15,14,13.10
2019,03,21,15,15,13.10
2019,03,21,15,16,13.10
2019,03,21,15,17,13.10
2019,03,21,15,18,13.10
2019,03,21,15,19,13.10
2019,03,21,15,20,13.10
2019,03,21,15,21,13.10
2019,03,21,15,22,13.10
2019,03,21,15,23,13.10
2019,03,21,15,24,13.10
2019,03,21,15,25,13.10
2019,03,21,15,26,13.10
2019,03,21,15,27,13.10
2019,03,21,15,28,13.10
2019,03,21,15,29,13.00
2019,03,21,15,30,13.00
2019,03,21,15,31,13.00
2019,03,21,15,32,13.00
2019,03,21,15,33,13.10
2019,03,21,15,34,13.10
2019,03,21,15,35,13.10
2019,03,21,15,36,13.10
2019,03,21,15,37,13.10
2019,03,21,15,38,13.10
2019,03,21,15,39,13.10
2019,03,21,15,40,13.20
2019,03,21,15,41,13.20
2019,03,21,15,42,13.30
2019,03,21,15,43,13.30
2019,03,21,15,44,13.40
2019,03,21,15,45,13.50
2019,03,21,15,46,13.50
2019,03,21,15,47,13.60
2019,03,21,15,48,13.60
2019,03,21,15,49,13.60
2019,03,21,15,50,13.60
2019,03,21,15,51,13.60
2019,03,21,15,52,13.60
2019,03,21,15,53,13.70
2019,03,21,15,54,13.70
2019,03,21,15,55,13.80
2019,03,21,15,56,13.80
2019,03,21,15,57,13.80
2019,03,21,15,58,13.80
2019,03,21,15,59,13.80
2019,03,21,16,00,13.70
2019,03,21,16,01,13.70
2019,03,21,16,02,13.60
2019,03,21,16,03,13.50
2019,03,21,16,04,13.30
2019,03,21,16,05,13.30
2019,03,21,16,06,13.20
2019,03,21,16,07,13.10
2019,03,21,16,08,13.00
2019,03,21,16,09,12.90
2019,03,21,16,10,12.90
2019,03,21,16,11,12.90
2019,03,21,16,12,12.90
2019,03,21,16,13,12.80
2019,03,21,16,14,12.80
2019,03,21,16,15,12.80
2019,03,21,16,16,12.80
2019,03,21,16,17,12.80
2019,03,21,16,18,12.80
2019,03,21,16,19,12.80
2019,03,21,16,20,12.80
2019,03,21,16,21,12.90
2019,03,21,16,22,12.90
2019,03,21,16,23,12.90
2019,03,21,16,24,12.90
2019,03,21,16,25,12.90
2019,03,21,16,26,12.90
2019,03,21,16,27,12.90
2019,03,21,16,28,12.90
2019,03,21,16,29,12.90
2019,03,21,16,30,12.90
2019,03,21,16,31,12.90
2019,03,21,16,32,13.00
2019,03,21,16,33,13.00
2019,03,21,16,34,13.10
2019,03,21,16,35,13.10
2019,03,21,16,36,13.20
2019,03,21,16,37,13.20
2019,03,21,16,38,13.30
2019,03,21,16,39,13.40
2019,03,21,16,40,13.50
2019,03,21,16,41,13.70
2019,03,21,16,42,13.80
2019,03,21,16,43,13.80
2019,03,21,16,44,13.80
2019,03,21,16,45,13.80
2019,03,21,16,46,13.80
2019,03,21,16,47,13.70
2019,03,21,16,48,13.70
2019,03,21,16,49,13.70
2019,03,21,16,50,13.70
2019,03,21,16,51,13.80
2019,03,21,16,52,13.80
2019,03,21,16,53,13.80
2019,03,21,16,54,13.80
2019,03,21,16,55,13.80
2019,03,21,16,56,13.80
2019,03,21,16,57,13.80
2019,03,21,16,58,13.80
2019,03,21,16,59,13.80
2019,03,21,17,00,13.80
2019,03,21,17,01,13.80
2019,03,21,17,02,13.80
2019,03,21,17,03,13.80
2019,03,21,17,04,13.80
2019,03,21,17,05,13.80
2019,03,21,17,06,13.80
2019,03,21,17,07,13.70
2019,03,21,17,08,13.70
2019,03,21,17,09,13.60
2019,03,21,17,10,13.60
2019,03,21,17,11,13.50
2019,03,21,17,12,13.50
2019,03,21,17,13,13.40
2019,03,21,17,14,13.40
2019,03,21,17,15,13.40
2019,03,21,17,16,13.30
2019,03,21,17,17,13.30
2019,03,21,17,18,13.20
2019,03,21,17,19,13.20
2019,03,21,17,20,13.20
2019,03,21,17,21,13.10
2019,03,21,17,22,13.10
2019,03,21,17,23,13.10
2019,03,21,17,24,13.10
2019,03,21,17,25,13.10
2019,03,21,17,26,13.10
2019,03,21,17,27,13.00
2019,03,21,17,28,13.00
2019,03,21,17,29,13.00
2019,03,21,17,30,12.90
2019,03,21,17,31,12.90
2019,03,21,17,32,12.90
2019,03,21,17,33,12.90
2019,03,21,17,34,12.90
2019,03,21,17,35,12.80
2019,03,21,17,36,12.80
2019,03,21,17,37,12.80
2019,03,21,17,38,12.80
2019,03,21,17,39,12.80
2019,03,21,17,40,12.80
2019,03,21,17,41,12.80
2019,03,21,17,42,12.80
2019,03,21,17,43,12.80
2019,03,21,17,44,12.70
2019,03,21,17,45,12.70
2019,03,21,17,46,12.70